LEGION 1

Last updated on Mon Oct 14 2024 00:02:25 GMT+0000 (Coordinated Universal Time)

1 59625U 24081A 24287.50059711 .00011306 00000+0 57020-3 0 9990 2 59625 97.5652 358.4241 0007672 322.9607 37.1096 15.17282591 24813
UTC large
Height (km)
Speed (km/s)
/
Latitude / Longitude
Inclination (degrees)
Orbital Period (minutes)
Azimuth
Elevation
Range (km)
Doppler Factor

Next 0 passes for location: London (51.5072 / 0.1276)

Sorry there are no passes over London.